sat.trackr.live / text

‹ back to catalog

STARLINK-31551

NORAD 59191 · 2024-045P

PAYLOAD ACTIVE UNKNOWN

§ Identity

Operator
Country
US
Launch date
2024-03-10
Launch site
AFETR
Launch vehicle
Mass (kg)
RCS (m²)

Purposes: comms

External: N2YO · Heavens-Above · Gunter

§ Orbital elements

Epoch: 2026-09-19T21:01:00.727104Z

Period
94.27 min
Inclination
43.0026°
Eccentricity
0.0001478
Mean motion
15.27579218 rev/d
Perigee alt
482.0 km
Apogee alt
484.1 km
Semi-major
6,861.2 km
B*
2.6688e-5
RAAN
72.0994°
Arg perigee
254.3895°
Mean anomaly
105.6793°
Rev number
14,290

§ Raw data

STARLINK-315511 59191U 24045P   26262.87570286  .00000472  00000+0  26688-4 0  99972 59191  43.0026  72.0994 0001478 254.3895 105.6793 15.27579218142903

JSON: /api/v1/satellites/59191 · /tle

For live sub-satellite position, see the globe view (requires WebGL).

§ Visibility from observer

Set your observer location to see the next 7 days of passes ≥ 10°. The values pass through the URL so the page stays shareable.

No JS? Fill the form by hand. The geolocation button needs JavaScript.